EW3309 Weather Reports


Display with metric or nautical units.
time (UTC)temp
F
wind
direction
speed
MPH
gust
MPH
rain 1hr
in
rain 24hr
in
rain mn
in
humidity
%
barometer
mb
20260901233053 85 300 0.0 0.0 0.00 0.00 0.00 47 1012.3
20260901231600 85 270 0.0 0.0 0.00 0.00 0.00 44 1012.2
20260901230052 85 276 0.0 0.0 0.00 0.00 0.00 44 1012.3
20260901224552 85 281 0.0 0.0 0.00 0.00 0.00 43 1012.4
20260901223050 86 259 0.0 0.0 0.00 0.00 0.00 41 1012.4
20260901221549 86 277 0.0 0.0 0.00 0.00 0.00 43 1012.4
20260901220048 86 314 0.0 0.0 0.00 0.00 0.00 41 1012.4
20260901214545 87 313 0.0 0.0 0.00 0.00 0.00 42 1012.6
20260901213043 88 263 0.0 0.0 0.00 0.00 0.00 41 1012.5
20260901211541 88 309 0.0 0.0 0.00 0.00 0.00 40 1012.5
20260901210047 88 300 0.0 0.0 0.00 0.00 0.00 42 1012.7
20260901204537 89 261 0.0 0.0 0.00 0.00 0.00 42 1012.6
20260901203041 89 265 0.0 0.0 0.00 0.00 0.00 42 1012.6
20260901201536 89 284 0.0 0.0 0.00 0.00 0.00 42 1012.7
20260901200034 90 258 0.0 0.0 0.00 0.00 0.00 42 1012.8
20260901194533 89 267 0.0 0.0 0.00 0.00 0.00 39 1013.0
20260901193031 89 289 0.0 0.0 0.00 0.00 0.00 41 1013.0
20260901191535 88 311 0.0 0.0 0.00 0.00 0.00 39 1013.3
20260901190026 88 295 0.0 0.0 0.00 0.00 0.00 42 1013.3
20260901184522 87 213 0.0 0.0 0.00 0.00 0.00 46 1013.4
20260901183016 85 205 0.0 0.0 0.00 0.00 0.00 50 1013.7
20260901181514 84 247 0.0 0.0 0.00 0.00 0.00 50 1013.7
20260901180008 81 155 0.0 0.0 0.00 0.00 0.00 60 1013.8
20260901174504 79 171 0.0 0.0 0.00 0.00 0.00 66 1014.0
20260901173102 76 217 0.0 0.0 0.00 0.00 0.00 72 1013.9
20260901171624 73 157 0.0 0.0 0.00 0.00 0.00 81 1013.9
20260901170100 71 249 0.0 0.0 0.00 0.00 0.00 88 1014.0
20260901164556 69 251 0.0 0.0 0.00 0.00 0.00 92 1013.9
20260901163103 67 269 0.0 0.0 0.00 0.00 0.00 94 1013.8
20260901161540 67 261 0.0 0.0 0.00 0.00 0.00 94 1013.7
20260901160040 66 333 0.0 0.0 0.00 0.00 0.00 94 1013.7
20260901154550 65 333 0.0 0.0 0.00 0.00 0.00 94 1013.7
20260901153040 65 333 0.0 0.0 0.00 0.00 0.00 94 1013.6
20260901151536 64 336 0.0 0.0 0.00 0.00 0.00 94 1013.5
20260901150032 63 5 0.0 0.0 0.00 0.00 0.00 93 1013.5
20260901144530 63 5 0.0 0.0 0.00 0.00 0.00 93 1013.5
20260901143029 62 12 0.0 0.0 0.00 0.00 0.00 93 1013.4
20260901141527 62 5 0.0 0.0 0.00 0.00 0.00 93 1013.3
20260901140024 62 5 0.0 0.0 0.00 0.00 0.00 92 1013.2
20260901134525 62 5 0.0 0.0 0.00 0.00 0.00 92 1013.1
20260901133019 62 5 0.0 0.0 0.00 0.00 0.00 92 1013.0
20260901131517 63 5 0.0 0.0 0.00 0.00 0.00 92 1013.0
20260901130017 63 5 0.0 0.0 0.00 0.00 0.00 92 1012.9
20260901124515 63 5 0.0 0.0 0.00 0.00 0.00 92 1012.8
20260901123015 64 5 0.0 0.0 0.00 0.00 0.00 92 1012.7
20260901121518 64 5 0.0 0.0 0.00 0.00 0.00 92 1012.7
20260901120013 64 5 0.0 0.0 0.00 0.00 0.00 92 1012.7
20260901114513 64 355 0.0 0.0 0.00 0.00 0.00 91 1012.6
20260901113011 63 327 0.0 0.0 0.00 0.00 0.00 91 1012.5
20260901111510 63 344 0.0 0.0 0.00 0.00 0.00 90 1012.5
20260901110009 63 14 0.0 0.0 0.00 0.00 0.00 89 1012.5
20260901104512 63 15 0.0 0.0 0.00 0.00 0.00 89 1012.6
20260901103005 63 15 0.0 0.0 0.00 0.00 0.00 89 1012.6
20260901101510 64 15 0.0 0.0 0.00 0.00 0.00 89 1012.7
20260901100004 64 16 0.0 0.0 0.00 0.00 0.00 89 1012.7
20260901094505 64 15 0.0 0.0 0.00 0.00 0.00 88 1012.7
20260901093102 64 16 0.0 0.0 0.00 0.00 0.00 88 1012.7
20260901091606 64 16 0.0 0.0 0.00 0.00 0.00 88 1012.6
20260901084600 64 14 0.0 0.0 0.00 0.00 0.00 87 1012.6
20260901083056 65 344 0.0 0.0 0.00 0.00 0.00 86 1012.7
20260901081555 65 338 0.0 0.0 0.00 0.00 0.00 87 1012.8
20260901080109 66 338 0.0 0.0 0.00 0.00 0.00 87 1012.9
20260901074552 66 338 0.0 0.0 0.00 0.00 0.00 86 1012.7
20260901073050 66 338 0.0 0.0 0.00 0.00 0.00 85 1012.7
20260901071555 66 337 0.0 0.0 0.00 0.00 0.00 85 1012.7
20260901070057 66 337 0.0 0.0 0.00 0.00 0.00 85 1012.8
20260901064558 67 337 0.0 0.0 0.00 0.00 0.00 84 1012.8
20260901063048 67 337 0.0 0.0 0.00 0.00 0.00 83 1012.8
20260901061542 67 337 0.0 0.0 0.00 0.00 0.00 82 1012.8
20260901060043 67 337 0.0 0.0 0.00 0.00 0.00 82 1012.6
20260901054539 67 337 0.0 0.0 0.00 0.00 0.00 80 1012.5
20260901053038 68 337 0.0 0.0 0.00 0.00 0.00 80 1012.6
20260901051536 68 336 0.0 0.0 0.00 0.00 0.00 80 1012.5
20260901050034 68 336 0.0 0.0 0.00 0.00 0.00 78 1012.4
20260901044535 69 333 0.0 0.0 0.00 0.00 0.00 78 1012.3
20260901043032 70 333 0.0 0.0 0.00 0.00 0.00 78 1012.2
20260901041530 70 333 0.0 0.0 0.00 0.00 0.00 78 1012.2
20260901040030 71 333 0.0 0.0 0.00 0.00 0.00 78 1012.2
20260901034528 71 314 0.0 0.0 0.00 0.00 0.00 77 1012.1
20260901033036 72 339 0.0 0.0 0.00 0.00 0.00 75 1011.8
20260901031537 73 325 0.0 0.0 0.00 0.00 0.00 73 1011.7
20260901030026 73 304 0.0 0.0 0.00 0.00 0.00 72 1011.4
20260901024525 75 304 0.0 0.0 0.00 0.00 0.00 70 1011.2
20260901023024 76 293 0.0 0.0 0.00 0.00 0.00 68 1011.0
20260901021542 77 265 0.0 0.0 0.00 0.00 0.00 64 1010.8
20260901020023 79 265 0.0 0.0 0.00 0.00 0.00 59 1010.7
20260901014522 80 267 0.0 0.0 0.00 0.00 0.00 56 1010.5
20260901013031 81 282 0.0 0.0 0.00 0.00 0.00 55 1010.4
20260901011521 82 290 0.0 0.0 0.00 0.00 0.00 52 1010.5
20260901010038 83 292 0.0 0.0 0.00 0.00 0.00 51 1010.6
20260901004518 84 291 0.0 0.0 0.00 0.00 0.00 50 1010.6
20260901003026 84 290 0.0 0.0 0.00 0.00 0.00 48 1010.6
20260901001519 84 290 0.0 0.0 0.00 0.00 0.00 48 1010.6
20260901000018 84 240 0.0 0.0 0.00 0.00 0.00 50 1010.7
20260831234518 85 262 0.0 0.0 0.00 0.00 0.00 48 1010.8